contact:dominique.lefevre@mio.osupytheas.fr, maurice.libes@osupytheas.fr, didier.mallarino@osupytheas.fr
Project:EMSO http://www.emso-fr.org/EMSO-France
Depth: 2436.0 m
Title:EMSO Ligure Ouest : Data MII capteur MICROCAT
DateTime_Computer,Latitude,Longitude,Temperature,Conductivity,Pressure,DateTime_Instrument
DateTime_Computer,Latitude,Longitude,degC,S m-1,dbar,DateTime_Instrument
2019-10-12T00:03:02Z,42.805,6.029,13.2992,4.60003,2469.9,2019-10-12T02:03:27Z
2019-10-12T00:06:05Z,42.805,6.029,13.2992,4.59974,2469.9,2019-10-12T02:06:30Z
2019-10-12T00:09:08Z,42.805,6.029,13.2981,4.59986,2469.853,2019-10-12T02:09:33Z
2019-10-12T00:12:11Z,42.805,6.029,13.2990,4.59985,2469.914,2019-10-12T02:12:37Z
2019-10-12T00:15:15Z,42.805,6.029,13.2972,4.59995,2469.876,2019-10-12T02:15:40Z
2019-10-12T00:18:18Z,42.805,6.029,13.2981,4.59990,2469.923,2019-10-12T02:18:43Z
2019-10-12T00:21:21Z,42.805,6.029,13.2984,4.59986,2469.914,2019-10-12T02:21:46Z
2019-10-12T00:24:24Z,42.805,6.029,13.2970,4.59987,2469.876,2019-10-12T02:24:49Z
2019-10-12T00:27:27Z,42.805,6.029,13.2987,4.59978,2469.9,2019-10-12T02:27:53Z
2019-10-12T00:30:31Z,42.805,6.029,13.2972,4.59981,2469.9,2019-10-12T02:30:56Z
2019-10-12T00:33:34Z,42.805,6.029,13.2979,4.59975,2469.914,2019-10-12T02:33:59Z
2019-10-12T00:36:37Z,42.805,6.029,13.2974,4.59982,2469.876,2019-10-12T02:37:02Z
2019-10-12T00:39:40Z,42.805,6.029,13.2976,4.59985,2469.89,2019-10-12T02:40:06Z
2019-10-12T00:42:44Z,42.805,6.029,13.2983,4.60001,2469.9,2019-10-12T02:43:09Z
2019-10-12T00:45:47Z,42.805,6.029,13.2993,4.59986,2469.876,2019-10-12T02:46:12Z
2019-10-12T00:48:50Z,42.805,6.029,13.2989,4.59996,2469.89,2019-10-12T02:49:15Z
2019-10-12T00:51:53Z,42.805,6.029,13.2998,4.59988,2469.914,2019-10-12T02:52:18Z
2019-10-12T00:54:56Z,42.805,6.029,13.2976,4.60007,2469.923,2019-10-12T02:55:21Z
2019-10-12T00:57:59Z,42.805,6.029,13.2993,4.59981,2469.9,2019-10-12T02:58:25Z
2019-10-12T01:01:03Z,42.805,6.029,13.3003,4.59981,2469.89,2019-10-12T03:01:28Z
2019-10-12T01:04:06Z,42.805,6.029,13.2993,4.60000,2469.914,2019-10-12T03:04:31Z
2019-10-12T01:07:09Z,42.805,6.029,13.3010,4.59990,2469.937,2019-10-12T03:07:34Z
2019-10-12T01:10:12Z,42.805,6.029,13.3010,4.60024,2469.89,2019-10-12T03:10:37Z
2019-10-12T01:13:15Z,42.805,6.029,13.3006,4.59982,2469.853,2019-10-12T03:13:41Z
2019-10-12T01:16:19Z,42.805,6.029,13.2998,4.60015,2469.914,2019-10-12T03:16:44Z
2019-10-12T01:19:22Z,42.805,6.029,13.2980,4.59976,2469.9,2019-10-12T03:19:47Z
2019-10-12T01:22:25Z,42.805,6.029,13.2988,4.59983,2469.89,2019-10-12T03:22:50Z
2019-10-12T01:25:28Z,42.805,6.029,13.2981,4.59995,2469.9,2019-10-12T03:25:53Z
2019-10-12T01:28:31Z,42.805,6.029,13.2971,4.59969,2469.89,2019-10-12T03:28:57Z
2019-10-12T01:31:35Z,42.805,6.029,13.2979,4.60011,2469.9,2019-10-12T03:32:00Z
2019-10-12T01:34:38Z,42.805,6.029,13.2985,4.59993,2469.876,2019-10-12T03:35:03Z
2019-10-12T01:37:41Z,42.805,6.029,13.2992,4.59996,2469.914,2019-10-12T03:38:06Z
2019-10-12T01:40:44Z,42.805,6.029,13.2980,4.60036,2469.867,2019-10-12T03:41:09Z
2019-10-12T01:43:47Z,42.805,6.029,13.2991,4.59988,2469.89,2019-10-12T03:44:12Z
2019-10-12T01:46:50Z,42.805,6.029,13.3001,4.59994,2469.914,2019-10-12T03:47:16Z
2019-10-12T01:49:54Z,42.805,6.029,13.2992,4.60002,2469.853,2019-10-12T03:50:19Z
2019-10-12T01:52:57Z,42.805,6.029,13.2979,4.60023,2469.876,2019-10-12T03:53:22Z
2019-10-12T01:56:00Z,42.805,6.029,13.2999,4.60021,2469.89,2019-10-12T03:56:25Z
2019-10-12T01:59:03Z,42.805,6.029,13.3023,4.59981,2469.914,2019-10-12T03:59:28Z
2019-10-12T02:02:07Z,42.805,6.029,13.3014,4.60016,2469.9,2019-10-12T04:02:32Z
2019-10-12T02:05:10Z,42.805,6.029,13.3025,4.60115,2469.9,2019-10-12T04:05:35Z
2019-10-12T02:08:13Z,42.805,6.029,13.3011,4.60055,2469.867,2019-10-12T04:08:38Z
2019-10-12T02:11:16Z,42.805,6.029,13.3018,4.60031,2469.9,2019-10-12T04:11:41Z
2019-10-12T02:14:19Z,42.805,6.029,13.3021,4.60001,2469.853,2019-10-12T04:14:44Z
2019-10-12T02:17:22Z,42.805,6.029,13.2997,4.59991,2469.89,2019-10-12T04:17:48Z
2019-10-12T02:20:26Z,42.805,6.029,13.3000,4.60025,2469.9,2019-10-12T04:20:51Z
2019-10-12T02:23:29Z,42.805,6.029,13.3011,4.60019,2469.876,2019-10-12T04:23:54Z
2019-10-12T02:26:32Z,42.805,6.029,13.2978,4.60009,2469.876,2019-10-12T04:26:57Z
2019-10-12T02:29:35Z,42.805,6.029,13.2996,4.60009,2469.9,2019-10-12T04:30:00Z
2019-10-12T02:32:39Z,42.805,6.029,13.2979,4.59986,2469.876,2019-10-12T04:33:04Z
2019-10-12T02:35:42Z,42.805,6.029,13.2984,4.60018,2469.937,2019-10-12T04:36:07Z
2019-10-12T02:38:45Z,42.805,6.029,13.2996,4.60035,2469.914,2019-10-12T04:39:10Z
2019-10-12T02:41:48Z,42.805,6.029,13.3027,4.60031,2469.89,2019-10-12T04:42:13Z
2019-10-12T02:44:51Z,42.805,6.029,13.3018,4.60059,2469.9,2019-10-12T04:45:17Z
2019-10-12T02:47:55Z,42.805,6.029,13.3019,4.60076,2469.914,2019-10-12T04:48:20Z
2019-10-12T02:50:58Z,42.805,6.029,13.3019,4.60000,2469.947,2019-10-12T04:51:23Z
2019-10-12T02:54:01Z,42.805,6.029,13.3022,4.60029,2469.914,2019-10-12T04:54:26Z
2019-10-12T02:57:04Z,42.805,6.029,13.3020,4.60033,2469.914,2019-10-12T04:57:29Z
2019-10-12T03:00:07Z,42.805,6.029,13.3017,4.60044,2469.923,2019-10-12T05:00:32Z
2019-10-12T03:03:10Z,42.805,6.029,13.3025,4.60026,2469.96,2019-10-12T05:03:36Z
2019-10-12T03:06:14Z,42.805,6.029,13.3015,4.60014,2469.937,2019-10-12T05:06:39Z
2019-10-12T03:09:17Z,42.805,6.029,13.3015,4.60025,2469.914,2019-10-12T05:09:42Z
2019-10-12T03:12:20Z,42.805,6.029,13.2996,4.60011,2469.937,2019-10-12T05:12:45Z
2019-10-12T03:15:23Z,42.805,6.029,13.2984,4.60018,2469.923,2019-10-12T05:15:48Z
2019-10-12T03:18:26Z,42.805,6.029,13.3000,4.60007,2469.947,2019-10-12T05:18:51Z
2019-10-12T03:21:30Z,42.805,6.029,13.3007,4.60014,2469.96,2019-10-12T05:21:55Z
2019-10-12T03:24:33Z,42.805,6.029,13.3000,4.60029,2469.937,2019-10-12T05:24:58Z
2019-10-12T03:27:36Z,42.805,6.029,13.3006,4.60044,2469.947,2019-10-12T05:28:01Z
2019-10-12T03:30:39Z,42.805,6.029,13.2983,4.60021,2469.96,2019-10-12T05:31:04Z
2019-10-12T03:33:42Z,42.805,6.029,13.2977,4.60072,2469.947,2019-10-12T05:34:07Z
2019-10-12T03:36:46Z,42.805,6.029,13.2996,4.60032,2469.923,2019-10-12T05:37:11Z
2019-10-12T03:39:49Z,42.805,6.029,13.2992,4.60043,2469.937,2019-10-12T05:40:14Z
2019-10-12T03:42:52Z,42.805,6.029,13.2987,4.60049,2469.923,2019-10-12T05:43:17Z
2019-10-12T03:45:55Z,42.805,6.029,13.3006,4.60014,2469.96,2019-10-12T05:46:20Z
2019-10-12T03:48:58Z,42.805,6.029,13.3000,4.60035,2469.96,2019-10-12T05:49:23Z
2019-10-12T03:52:01Z,42.805,6.029,13.2983,4.60014,2469.96,2019-10-12T05:52:27Z
2019-10-12T03:55:05Z,42.805,6.029,13.3017,4.60019,2469.96,2019-10-12T05:55:30Z
2019-10-12T03:58:08Z,42.805,6.029,13.3007,4.60018,2469.937,2019-10-12T05:58:33Z
2019-10-12T04:01:11Z,42.805,6.029,13.3015,4.60040,2469.984,2019-10-12T06:01:36Z
2019-10-12T04:04:14Z,42.805,6.029,13.2987,4.60019,2470.007,2019-10-12T06:04:40Z
2019-10-12T04:07:18Z,42.805,6.029,13.2983,4.60025,2469.97,2019-10-12T06:07:43Z
2019-10-12T04:10:21Z,42.805,6.029,13.2978,4.60035,2469.984,2019-10-12T06:10:46Z
2019-10-12T04:13:24Z,42.805,6.029,13.3000,4.60011,2470.017,2019-10-12T06:13:49Z
2019-10-12T04:16:27Z,42.805,6.029,13.2969,4.60019,2469.984,2019-10-12T06:16:52Z
2019-10-12T04:19:30Z,42.805,6.029,13.2965,4.60002,2469.984,2019-10-12T06:19:56Z
2019-10-12T04:22:34Z,42.805,6.029,13.2971,4.60029,2469.984,2019-10-12T06:22:59Z
2019-10-12T04:25:37Z,42.805,6.029,13.2987,4.60033,2469.97,2019-10-12T06:26:02Z
2019-10-12T04:28:40Z,42.805,6.029,13.2992,4.60027,2470.007,2019-10-12T06:29:05Z
2019-10-12T04:31:43Z,42.805,6.029,13.2975,4.60011,2469.993,2019-10-12T06:32:08Z
2019-10-12T04:34:46Z,42.805,6.029,13.2985,4.60007,2469.993,2019-10-12T06:35:12Z
2019-10-12T04:37:50Z,42.805,6.029,13.2980,4.60033,2469.993,2019-10-12T06:38:15Z
2019-10-12T04:40:53Z,42.805,6.029,13.3004,4.60000,2470.03,2019-10-12T06:41:18Z
2019-10-12T04:43:56Z,42.805,6.029,13.2991,4.60024,2470.007,2019-10-12T06:44:21Z
2019-10-12T04:46:59Z,42.805,6.029,13.2991,4.60019,2469.97,2019-10-12T06:47:24Z
2019-10-12T04:50:02Z,42.805,6.029,13.3000,4.60024,2470.007,2019-10-12T06:50:28Z
2019-10-12T04:53:06Z,42.805,6.029,13.2996,4.60031,2469.993,2019-10-12T06:53:31Z
2019-10-12T04:56:09Z,42.805,6.029,13.3001,4.60013,2470.017,2019-10-12T06:56:34Z
2019-10-12T04:59:12Z,42.805,6.029,13.3015,4.60023,2470.03,2019-10-12T06:59:37Z
2019-10-12T05:02:15Z,42.805,6.029,13.2972,4.60031,2470.007,2019-10-12T07:02:40Z
2019-10-12T05:05:18Z,42.805,6.029,13.2992,4.60031,2470.053,2019-10-12T07:05:44Z
2019-10-12T05:08:22Z,42.805,6.029,13.2991,4.60020,2470.007,2019-10-12T07:08:47Z
2019-10-12T05:11:25Z,42.805,6.029,13.2986,4.60027,2470.03,2019-10-12T07:11:50Z
2019-10-12T05:14:28Z,42.805,6.029,13.2989,4.60022,2470.007,2019-10-12T07:14:53Z
2019-10-12T05:17:31Z,42.805,6.029,13.3002,4.60026,2470.03,2019-10-12T07:17:56Z
2019-10-12T05:20:34Z,42.805,6.029,13.2975,4.60019,2470.03,2019-10-12T07:20:59Z
2019-10-12T05:23:38Z,42.805,6.029,13.2968,4.60016,2470.017,2019-10-12T07:24:03Z
2019-10-12T05:26:41Z,42.805,6.029,13.2972,4.60025,2470.063,2019-10-12T07:27:06Z
2019-10-12T05:29:44Z,42.805,6.029,13.2998,4.60013,2470.007,2019-10-12T07:30:09Z
2019-10-12T05:32:47Z,42.805,6.029,13.2995,4.60036,2470.053,2019-10-12T07:33:12Z
2019-10-12T05:35:51Z,42.805,6.029,13.2983,4.60029,2470.017,2019-10-12T07:36:16Z
2019-10-12T05:38:54Z,42.805,6.029,13.2984,4.60037,2470.063,2019-10-12T07:39:19Z
2019-10-12T05:41:57Z,42.805,6.029,13.3014,4.60007,2470.053,2019-10-12T07:42:22Z
2019-10-12T05:45:00Z,42.805,6.029,13.2978,4.60011,2470.017,2019-10-12T07:45:25Z
2019-10-12T05:48:03Z,42.805,6.029,13.2995,4.60019,2470.017,2019-10-12T07:48:29Z
2019-10-12T05:51:07Z,42.805,6.029,13.3000,4.60019,2470.03,2019-10-12T07:51:32Z
2019-10-12T05:54:10Z,42.805,6.029,13.2978,4.60006,2470.053,2019-10-12T07:54:35Z
2019-10-12T05:57:13Z,42.805,6.029,13.2976,4.60006,2470.053,2019-10-12T07:57:38Z
2019-10-12T06:00:17Z,42.805,6.029,13.2974,4.60026,2469.97,2019-10-12T08:00:42Z
2019-10-12T06:03:20Z,42.805,6.029,13.2972,4.60010,2470.017,2019-10-12T08:03:45Z
2019-10-12T06:06:23Z,42.805,6.029,13.2981,4.60017,2470.04,2019-10-12T08:06:48Z
2019-10-12T06:09:26Z,42.805,6.029,13.2974,4.60004,2470.04,2019-10-12T08:09:51Z
2019-10-12T06:12:29Z,42.805,6.029,13.2982,4.60001,2470.017,2019-10-12T08:12:55Z
2019-10-12T06:15:33Z,42.805,6.029,13.2974,4.59993,2470.053,2019-10-12T08:15:58Z
2019-10-12T06:18:36Z,42.805,6.029,13.2972,4.60017,2470.04,2019-10-12T08:19:01Z
2019-10-12T06:21:39Z,42.805,6.029,13.2976,4.60016,2470.053,2019-10-12T08:22:04Z
2019-10-12T06:24:42Z,42.805,6.029,13.2967,4.60004,2470.063,2019-10-12T08:25:07Z
2019-10-12T06:27:45Z,42.805,6.029,13.2963,4.59997,2470.017,2019-10-12T08:28:10Z
2019-10-12T06:30:49Z,42.805,6.029,13.2979,4.60006,2470.04,2019-10-12T08:31:14Z
2019-10-12T06:33:52Z,42.805,6.029,13.2968,4.60014,2470.017,2019-10-12T08:34:17Z
2019-10-12T06:36:55Z,42.805,6.029,13.2987,4.60038,2470.017,2019-10-12T08:37:20Z
2019-10-12T06:39:58Z,42.805,6.029,13.2993,4.60004,2470.03,2019-10-12T08:40:23Z
2019-10-12T06:43:01Z,42.805,6.029,13.2991,4.59989,2470.077,2019-10-12T08:43:26Z
2019-10-12T06:46:04Z,42.805,6.029,13.3007,4.60001,2470.017,2019-10-12T08:46:30Z
2019-10-12T06:49:08Z,42.805,6.029,13.2998,4.60014,2470.053,2019-10-12T08:49:33Z
2019-10-12T06:52:11Z,42.805,6.029,13.2990,4.60017,2470.017,2019-10-12T08:52:36Z
2019-10-12T06:55:14Z,42.805,6.029,13.2976,4.60031,2470.053,2019-10-12T08:55:39Z
2019-10-12T06:58:17Z,42.805,6.029,13.3003,4.60020,2470.017,2019-10-12T08:58:42Z
2019-10-12T07:01:21Z,42.805,6.029,13.2983,4.60008,2469.993,2019-10-12T09:01:46Z
2019-10-12T07:04:24Z,42.805,6.029,13.2994,4.60005,2470.03,2019-10-12T09:04:49Z
2019-10-12T07:07:27Z,42.805,6.029,13.2987,4.60026,2470.04,2019-10-12T09:07:52Z
2019-10-12T07:10:30Z,42.805,6.029,13.2998,4.59988,2470.053,2019-10-12T09:10:55Z
2019-10-12T07:13:33Z,42.805,6.029,13.2987,4.60018,2470.053,2019-10-12T09:13:59Z
2019-10-12T07:16:37Z,42.805,6.029,13.3006,4.60020,2470.017,2019-10-12T09:17:02Z
2019-10-12T07:19:40Z,42.805,6.029,13.2994,4.60032,2470.04,2019-10-12T09:20:05Z
2019-10-12T07:22:43Z,42.805,6.029,13.2990,4.60028,2470.04,2019-10-12T09:23:08Z
2019-10-12T07:25:46Z,42.805,6.029,13.2996,4.60038,2470.017,2019-10-12T09:26:11Z
2019-10-12T07:28:49Z,42.805,6.029,13.3002,4.60024,2470.007,2019-10-12T09:29:15Z
2019-10-12T07:31:53Z,42.805,6.029,13.2991,4.60009,2470.03,2019-10-12T09:32:18Z
2019-10-12T07:34:56Z,42.805,6.029,13.2978,4.60038,2470.03,2019-10-12T09:35:21Z
2019-10-12T07:37:59Z,42.805,6.029,13.2990,4.60044,2470.017,2019-10-12T09:38:24Z
2019-10-12T07:41:02Z,42.805,6.029,13.2996,4.60021,2469.993,2019-10-12T09:41:27Z
2019-10-12T07:44:05Z,42.805,6.029,13.3001,4.60051,2470.04,2019-10-12T09:44:30Z
2019-10-12T07:47:08Z,42.805,6.029,13.3000,4.60020,2469.993,2019-10-12T09:47:34Z
2019-10-12T07:50:12Z,42.805,6.029,13.3015,4.60034,2470.03,2019-10-12T09:50:37Z
2019-10-12T07:53:15Z,42.805,6.029,13.3012,4.60020,2470.03,2019-10-12T09:53:40Z
2019-10-12T07:56:18Z,42.805,6.029,13.3000,4.60036,2470.03,2019-10-12T09:56:43Z
2019-10-12T07:59:21Z,42.805,6.029,13.2985,4.60020,2470.007,2019-10-12T09:59:47Z
2019-10-12T08:02:25Z,42.805,6.029,13.3001,4.60015,2469.993,2019-10-12T10:02:50Z
2019-10-12T08:05:28Z,42.805,6.029,13.3005,4.60017,2470.03,2019-10-12T10:05:53Z
2019-10-12T08:08:31Z,42.805,6.029,13.3000,4.60067,2470.007,2019-10-12T10:08:56Z
2019-10-12T08:11:34Z,42.805,6.029,13.2986,4.60026,2470.03,2019-10-12T10:11:59Z
2019-10-12T08:14:37Z,42.805,6.029,13.3009,4.60014,2470.03,2019-10-12T10:15:03Z
2019-10-12T08:17:41Z,42.805,6.029,13.3017,4.60028,2470.017,2019-10-12T10:18:06Z
2019-10-12T08:20:44Z,42.805,6.029,13.3012,4.60029,2470.03,2019-10-12T10:21:09Z
2019-10-12T08:23:47Z,42.805,6.029,13.3000,4.60039,2470.017,2019-10-12T10:24:12Z
2019-10-12T08:26:50Z,42.805,6.029,13.3007,4.60032,2469.993,2019-10-12T10:27:15Z
2019-10-12T08:29:53Z,42.805,6.029,13.3006,4.60044,2470.007,2019-10-12T10:30:19Z
2019-10-12T08:32:57Z,42.805,6.029,13.2976,4.60021,2469.993,2019-10-12T10:33:22Z
2019-10-12T08:36:00Z,42.805,6.029,13.2990,4.60032,2470.017,2019-10-12T10:36:25Z
2019-10-12T08:39:03Z,42.805,6.029,13.2986,4.60066,2469.993,2019-10-12T10:39:28Z
2019-10-12T08:42:06Z,42.805,6.029,13.3013,4.60026,2470.007,2019-10-12T10:42:31Z
2019-10-12T08:45:09Z,42.805,6.029,13.2997,4.60055,2469.984,2019-10-12T10:45:35Z
2019-10-12T08:48:13Z,42.805,6.029,13.2974,4.60029,2469.97,2019-10-12T10:48:38Z
2019-10-12T08:51:16Z,42.805,6.029,13.2968,4.60017,2469.993,2019-10-12T10:51:41Z
2019-10-12T08:54:19Z,42.805,6.029,13.2962,4.59988,2469.993,2019-10-12T10:54:44Z
2019-10-12T08:57:22Z,42.805,6.029,13.2977,4.59999,2469.97,2019-10-12T10:57:47Z
2019-10-12T09:00:26Z,42.805,6.029,13.2983,4.60009,2469.97,2019-10-12T11:00:51Z
2019-10-12T09:03:29Z,42.805,6.029,13.2970,4.59996,2469.993,2019-10-12T11:03:54Z
2019-10-12T09:06:32Z,42.805,6.029,13.2978,4.60026,2469.993,2019-10-12T11:06:57Z
2019-10-12T09:09:35Z,42.805,6.029,13.2990,4.60028,2469.993,2019-10-12T11:10:00Z
2019-10-12T09:12:38Z,42.805,6.029,13.2983,4.60026,2469.984,2019-10-12T11:13:04Z
2019-10-12T09:15:42Z,42.805,6.029,13.2984,4.60003,2470.007,2019-10-12T11:16:07Z
2019-10-12T09:18:45Z,42.805,6.029,13.3004,4.60021,2469.984,2019-10-12T11:19:10Z
2019-10-12T09:21:48Z,42.805,6.029,13.3015,4.60039,2469.993,2019-10-12T11:22:13Z
2019-10-12T09:24:51Z,42.805,6.029,13.2993,4.60029,2469.96,2019-10-12T11:25:16Z
2019-10-12T09:27:54Z,42.805,6.029,13.3000,4.60021,2469.97,2019-10-12T11:28:19Z
2019-10-12T09:30:58Z,42.805,6.029,13.2996,4.60034,2469.947,2019-10-12T11:31:23Z
2019-10-12T09:34:01Z,42.805,6.029,13.3026,4.60029,2469.984,2019-10-12T11:34:26Z
2019-10-12T09:37:04Z,42.805,6.029,13.3007,4.60031,2469.984,2019-10-12T11:37:29Z
2019-10-12T09:40:08Z,42.805,6.029,13.2986,4.60041,2469.947,2019-10-12T11:40:33Z
2019-10-12T09:43:11Z,42.805,6.029,13.2996,4.60021,2469.97,2019-10-12T11:43:36Z
2019-10-12T09:46:14Z,42.805,6.029,13.3020,4.60032,2469.984,2019-10-12T11:46:39Z
2019-10-12T09:49:17Z,42.805,6.029,13.2990,4.60045,2469.947,2019-10-12T11:49:42Z
2019-10-12T09:52:20Z,42.805,6.029,13.2998,4.60031,2469.947,2019-10-12T11:52:45Z
2019-10-12T09:55:24Z,42.805,6.029,13.2994,4.60014,2469.97,2019-10-12T11:55:49Z
2019-10-12T09:58:27Z,42.805,6.029,13.2977,4.60008,2469.947,2019-10-12T11:58:52Z
2019-10-12T10:01:30Z,42.805,6.029,13.2997,4.60044,2469.96,2019-10-12T12:01:55Z
2019-10-12T10:04:33Z,42.805,6.029,13.3006,4.60026,2469.96,2019-10-12T12:04:58Z
2019-10-12T10:07:36Z,42.805,6.029,13.2993,4.60019,2469.9,2019-10-12T12:08:02Z
2019-10-12T10:10:40Z,42.805,6.029,13.3008,4.60026,2469.96,2019-10-12T12:11:05Z
2019-10-12T10:13:43Z,42.805,6.029,13.3006,4.60036,2469.9,2019-10-12T12:14:08Z
2019-10-12T10:16:46Z,42.805,6.029,13.3013,4.60002,2469.96,2019-10-12T12:17:11Z
2019-10-12T10:19:49Z,42.805,6.029,13.2989,4.60024,2469.923,2019-10-12T12:20:14Z
2019-10-12T10:22:52Z,42.805,6.029,13.2990,4.59999,2469.947,2019-10-12T12:23:18Z
2019-10-12T10:25:56Z,42.805,6.029,13.2970,4.60002,2469.947,2019-10-12T12:26:21Z
2019-10-12T10:28:59Z,42.805,6.029,13.2984,4.60018,2469.96,2019-10-12T12:29:24Z
2019-10-12T10:32:02Z,42.805,6.029,13.2983,4.60036,2469.947,2019-10-12T12:32:27Z
2019-10-12T10:35:05Z,42.805,6.029,13.2974,4.60004,2469.923,2019-10-12T12:35:30Z
2019-10-12T10:38:08Z,42.805,6.029,13.2973,4.60031,2469.97,2019-10-12T12:38:34Z
2019-10-12T10:41:12Z,42.805,6.029,13.2996,4.60002,2469.97,2019-10-12T12:41:37Z
2019-10-12T10:44:15Z,42.805,6.029,13.3004,4.59991,2469.937,2019-10-12T12:44:40Z
2019-10-12T10:47:18Z,42.805,6.029,13.3009,4.60001,2469.937,2019-10-12T12:47:43Z
2019-10-12T10:50:22Z,42.805,6.029,13.2992,4.60001,2469.937,2019-10-12T12:50:47Z
2019-10-12T10:53:25Z,42.805,6.029,13.2996,4.59987,2469.96,2019-10-12T12:53:50Z
2019-10-12T10:56:28Z,42.805,6.029,13.2976,4.59994,2469.96,2019-10-12T12:56:53Z
2019-10-12T10:59:31Z,42.805,6.029,13.2986,4.59990,2469.937,2019-10-12T12:59:56Z
2019-10-12T11:02:34Z,42.805,6.029,13.2992,4.59989,2469.923,2019-10-12T13:03:00Z
2019-10-12T11:05:38Z,42.805,6.029,13.2968,4.59999,2469.923,2019-10-12T13:06:03Z
2019-10-12T11:08:41Z,42.805,6.029,13.2982,4.59991,2469.937,2019-10-12T13:09:06Z
2019-10-12T11:11:44Z,42.805,6.029,13.2989,4.59978,2469.89,2019-10-12T13:12:09Z
2019-10-12T11:14:47Z,42.805,6.029,13.2981,4.59975,2469.876,2019-10-12T13:15:12Z
2019-10-12T11:17:51Z,42.805,6.029,13.3000,4.60008,2469.923,2019-10-12T13:18:16Z
2019-10-12T11:20:54Z,42.805,6.029,13.2981,4.59998,2469.923,2019-10-12T13:21:19Z
2019-10-12T11:23:57Z,42.805,6.029,13.2976,4.59966,2469.914,2019-10-12T13:24:22Z
2019-10-12T11:27:00Z,42.805,6.029,13.2965,4.59990,2469.923,2019-10-12T13:27:25Z
2019-10-12T11:30:03Z,42.805,6.029,13.2979,4.59997,2469.923,2019-10-12T13:30:29Z
2019-10-12T11:33:07Z,42.805,6.029,13.2976,4.60000,2469.937,2019-10-12T13:33:32Z
2019-10-12T11:36:10Z,42.805,6.029,13.2982,4.60009,2469.923,2019-10-12T13:36:35Z
2019-10-12T11:39:13Z,42.805,6.029,13.2997,4.60008,2469.937,2019-10-12T13:39:38Z
2019-10-12T11:42:16Z,42.805,6.029,13.3009,4.59976,2469.9,2019-10-12T13:42:41Z
2019-10-12T11:45:19Z,42.805,6.029,13.2989,4.59980,2469.876,2019-10-12T13:45:45Z
2019-10-12T11:48:23Z,42.805,6.029,13.2974,4.59984,2469.9,2019-10-12T13:48:48Z
2019-10-12T11:51:26Z,42.805,6.029,13.2970,4.59981,2469.914,2019-10-12T13:51:51Z
2019-10-12T11:54:29Z,42.805,6.029,13.2974,4.59977,2469.914,2019-10-12T13:54:54Z
2019-10-12T11:57:32Z,42.805,6.029,13.2982,4.59983,2469.914,2019-10-12T13:57:58Z
2019-10-12T12:00:36Z,42.805,6.029,13.2982,4.59983,2469.876,2019-10-12T14:01:01Z
2019-10-12T12:03:39Z,42.805,6.029,13.2976,4.59975,2469.89,2019-10-12T14:04:04Z
2019-10-12T12:06:43Z,42.805,6.029,13.2980,4.59973,2469.9,2019-10-12T14:07:08Z
2019-10-12T12:09:46Z,42.805,6.029,13.2991,4.59965,2469.876,2019-10-12T14:10:11Z
2019-10-12T12:12:49Z,42.805,6.029,13.2968,4.59971,2469.867,2019-10-12T14:13:14Z
2019-10-12T12:15:52Z,42.805,6.029,13.2982,4.59985,2469.89,2019-10-12T14:16:17Z
2019-10-12T12:18:55Z,42.805,6.029,13.2981,4.59981,2469.89,2019-10-12T14:19:20Z
2019-10-12T12:21:58Z,42.805,6.029,13.2976,4.59986,2469.89,2019-10-12T14:22:24Z
2019-10-12T12:25:02Z,42.805,6.029,13.2988,4.59988,2469.867,2019-10-12T14:25:27Z
2019-10-12T12:28:05Z,42.805,6.029,13.2984,4.59976,2469.867,2019-10-12T14:28:30Z
2019-10-12T12:31:08Z,42.805,6.029,13.2982,4.59988,2469.9,2019-10-12T14:31:34Z
2019-10-12T12:34:12Z,42.805,6.029,13.2985,4.59988,2469.876,2019-10-12T14:34:37Z
2019-10-12T12:37:15Z,42.805,6.029,13.2996,4.59992,2469.876,2019-10-12T14:37:40Z
2019-10-12T12:40:18Z,42.805,6.029,13.2991,4.59986,2469.844,2019-10-12T14:40:43Z
2019-10-12T12:43:21Z,42.805,6.029,13.2984,4.59983,2469.9,2019-10-12T14:43:46Z
2019-10-12T12:46:24Z,42.805,6.029,13.2972,4.59973,2469.9,2019-10-12T14:46:50Z
2019-10-12T12:49:28Z,42.805,6.029,13.2979,4.59989,2469.923,2019-10-12T14:49:53Z
2019-10-12T12:52:31Z,42.805,6.029,13.2986,4.59978,2469.876,2019-10-12T14:52:56Z
2019-10-12T12:55:34Z,42.805,6.029,13.2980,4.59983,2469.867,2019-10-12T14:55:59Z
2019-10-12T12:58:37Z,42.805,6.029,13.2988,4.59986,2469.876,2019-10-12T14:59:03Z
2019-10-12T13:01:41Z,42.805,6.029,13.2990,4.59986,2469.876,2019-10-12T15:02:06Z
2019-10-12T13:04:44Z,42.805,6.029,13.2986,4.59986,2469.923,2019-10-12T15:05:09Z
2019-10-12T13:07:47Z,42.805,6.029,13.2992,4.59985,2469.876,2019-10-12T15:08:12Z
2019-10-12T13:10:50Z,42.805,6.029,13.2988,4.59982,2469.876,2019-10-12T15:11:15Z
2019-10-12T13:13:53Z,42.805,6.029,13.2990,4.59983,2469.876,2019-10-12T15:14:18Z
2019-10-12T13:16:57Z,42.805,6.029,13.2987,4.59983,2469.914,2019-10-12T15:17:22Z
2019-10-12T13:20:00Z,42.805,6.029,13.2994,4.59974,2469.886,2019-10-12T15:20:25Z
2019-10-12T13:23:03Z,42.805,6.029,13.2984,4.59981,2469.876,2019-10-12T15:23:28Z
2019-10-12T13:26:06Z,42.805,6.029,13.2979,4.59976,2469.853,2019-10-12T15:26:31Z
2019-10-12T13:29:09Z,42.805,6.029,13.2989,4.59994,2469.914,2019-10-12T15:29:34Z
2019-10-12T13:32:13Z,42.805,6.029,13.2993,4.59984,2469.89,2019-10-12T15:32:38Z
2019-10-12T13:35:16Z,42.805,6.029,13.2989,4.59984,2469.914,2019-10-12T15:35:41Z
2019-10-12T13:38:19Z,42.805,6.029,13.2982,4.59973,2469.876,2019-10-12T15:38:44Z
2019-10-12T13:41:22Z,42.805,6.029,13.2981,4.59986,2469.914,2019-10-12T15:41:47Z
2019-10-12T13:44:25Z,42.805,6.029,13.2986,4.59992,2469.9,2019-10-12T15:44:51Z
2019-10-12T13:47:29Z,42.805,6.029,13.2980,4.59981,2469.9,2019-10-12T15:47:54Z
2019-10-12T13:50:32Z,42.805,6.029,13.2983,4.59974,2469.876,2019-10-12T15:50:57Z
2019-10-12T13:53:35Z,42.805,6.029,13.2979,4.59982,2469.937,2019-10-12T15:54:00Z
2019-10-12T13:56:38Z,42.805,6.029,13.2981,4.59979,2469.937,2019-10-12T15:57:03Z
2019-10-12T13:59:41Z,42.805,6.029,13.2985,4.59991,2469.914,2019-10-12T16:00:07Z
2019-10-12T14:02:45Z,42.805,6.029,13.2985,4.59972,2469.9,2019-10-12T16:03:10Z
2019-10-12T14:05:48Z,42.805,6.029,13.2985,4.59987,2469.853,2019-10-12T16:06:13Z
2019-10-12T14:08:51Z,42.805,6.029,13.2994,4.59984,2469.937,2019-10-12T16:09:16Z
2019-10-12T14:11:54Z,42.805,6.029,13.2982,4.59978,2469.876,2019-10-12T16:12:19Z
2019-10-12T14:14:57Z,42.805,6.029,13.2982,4.59981,2469.937,2019-10-12T16:15:23Z
2019-10-12T14:18:01Z,42.805,6.029,13.3000,4.59994,2469.923,2019-10-12T16:18:26Z
2019-10-12T14:21:04Z,42.805,6.029,13.2993,4.59989,2469.9,2019-10-12T16:21:29Z
2019-10-12T14:24:07Z,42.805,6.029,13.2984,4.59978,2469.914,2019-10-12T16:24:32Z
2019-10-12T14:27:11Z,42.805,6.029,13.3021,4.59980,2469.923,2019-10-12T16:27:36Z
2019-10-12T14:30:14Z,42.805,6.029,13.2990,4.59982,2469.914,2019-10-12T16:30:39Z
2019-10-12T14:33:17Z,42.805,6.029,13.2979,4.59984,2469.923,2019-10-12T16:33:42Z
2019-10-12T14:36:20Z,42.805,6.029,13.2997,4.59994,2469.947,2019-10-12T16:36:45Z
2019-10-12T14:39:23Z,42.805,6.029,13.2979,4.59981,2469.9,2019-10-12T16:39:49Z
2019-10-12T14:42:27Z,42.805,6.029,13.2983,4.59988,2469.923,2019-10-12T16:42:52Z
2019-10-12T14:45:30Z,42.805,6.029,13.3006,4.59981,2469.937,2019-10-12T16:45:55Z
2019-10-12T14:48:33Z,42.805,6.029,13.3000,4.59988,2469.947,2019-10-12T16:48:58Z
2019-10-12T14:51:36Z,42.805,6.029,13.2995,4.60001,2469.937,2019-10-12T16:52:01Z
2019-10-12T14:54:39Z,42.805,6.029,13.2990,4.59991,2469.96,2019-10-12T16:55:04Z
2019-10-12T14:57:42Z,42.805,6.029,13.3006,4.59984,2469.96,2019-10-12T16:58:08Z
2019-10-12T15:00:46Z,42.805,6.029,13.2999,4.59983,2469.96,2019-10-12T17:01:11Z
2019-10-12T15:03:49Z,42.805,6.029,13.2991,4.59986,2469.923,2019-10-12T17:04:14Z